Probability
0 0 0 0 0 0 0 0 0 0 1 0 0 0 2 6 7 5 4 6 9 9 8 9 9 8 9 11 11 10 7 4 3 2 1 0 0 0 0 0 0 1 1 0
0 0 0 0 0 0 0 0 0 1 2 1 1 1 2 5 6 4 4 5 7 8 10 11 12 11 11 12 13 12 9 6 4 2 0 0 0 0 0 0 1 2 2 1
0 0 0 0 0 0 0 0 1 2 3 2 1 1 2 4 6 4 2 3 5 8 11 15 16 16 15 15 15 15 14 11 8 5 2 1 1 1 1 1 1 3 3 3
0 0 0 0 0 0 0 0 1 2 2 1 1 0 0 2 4 3 1 1 4 8 13 18 21 22 23 22 19 19 18 16 13 8 5 4 3 2 2 2 2 3 3 3
0 0 0 0 0 0 0 0 1 1 1 0 0 0 0 1 2 1 1 1 3 9 15 22 25 29 31 29 26 24 22 18 14 11 9 7 6 4 2 2 3 4 3 3
0 0 0 0 0 0 0 0 0 0 0 0 0 0 0 0 0 1 1 3 6 11 18 24 28 32 34 35 33 31 26 19 15 13 12 11 10 7 4 3 3 4 4 3
0 0 0 0 0 0 0 0 0 0 0 0 0 0 0 0 0 0 1 5 10 16 20 24 28 32 35 37 38 36 29 22 18 16 15 14 12 10 7 5 5 5 4 4
0 0 0 0 0 0 0 0 0 0 0 1 1 1 1 1 1 1 2 5 12 17 18 20 25 31 33 35 37 37 30 24 21 20 18 16 14 12 10 9 8 7 6 6
0 0 0 0 0 0 0 0 0 0 0 1 2 2 2 2 2 2 3 5 9 13 14 16 22 27 29 30 31 32 30 27 26 24 20 17 16 16 14 12 10 9 9 9
0 0 0 0 0 0 0 0 0 0 0 1 2 2 2 2 2 2 2 3 6 8 11 15 20 22 24 25 25 26 28 29 30 26 21 18 18 18 16 13 11 11 10 9
0 0 0 0 0 0 0 0 0 0 0 0 1 1 1 1 1 1 2 3 4 6 10 14 18 19 19 20 21 21 22 26 28 24 19 17 17 16 14 12 11 11 10 8
0 0 0 0 0 0 0 0 0 0 0 0 0 0 1 2 2 3 5 6 5 7 10 13 15 17 17 17 19 18 18 22 25 21 16 15 14 12 11 10 10 9 8 7
0 0 0 0 0 0 0 0 0 0 0 0 0 0 1 2 4 6 9 9 9 10 13 14 15 15 16 16 17 17 17 20 23 21 16 13 13 11 10 9 8 7 7 6
0 0 0 0 1 1 1 1 0 0 0 0 0 0 1 2 4 7 10 11 11 12 14 16 16 16 16 16 17 17 17 18 21 20 16 14 13 12 11 10 7 6 6 5
0 0 0 1 2 3 3 2 1 0 0 0 0 0 0 1 4 7 9 10 11 12 14 15 15 16 16 16 18 18 17 15 15 16 15 13 12 11 10 9 7 5 5 6
0 0 0 1 2 3 4 3 2 1 0 0 0 0 0 2 5 7 9 9 9 10 11 13 14 15 15 17 19 19 15 11 11 13 14 13 11 9 9 8 8 7 6 7
0 0 0 1 1 1 2 3 3 2 1 1 0 0 1 4 7 9 8 7 7 7 8 11 12 13 14 17 19 18 13 11 10 11 12 12 9 8 8 8 8 9 9 9
0 0 0 0 0 0 1 1 2 3 2 1 1 1 3 6 9 9 6 4 3 3 5 7 10 12 14 15 16 14 11 10 9 9 9 8 7 5 5 4 6 9 10 10
0 0 0 0 0 0 0 0 1 2 2 1 1 2 5 8 9 7 4 2 1 2 3 5 8 11 12 13 13 13 10 7 6 6 7 6 4 3 2 2 4 7 8 8
0 0 0 0 0 0 0 0 0 1 1 1 1 3 5 7 7 5 4 2 2 2 3 5 8 11 12 12 12 11 7 4 3 4 5 5 3 2 1 2 4 5 5 5
0 0 0 0 0 0 0 0 0 0 0 0 1 3 4 5 5 5 5 4 3 3 4 6 9 12 12 12 12 9 5 3 3 3 4 3 2 2 3 3 3 3 3 3
0 0 0 0 0 0 0 0 0 0 0 1 2 4 4 5 6 6 6 5 4 3 4 7 11 12 12 11 10 7 4 3 3 3 3 3 3 3 3 3 3 3 3 3
0 0 0 0 0 0 0 0 0 0 0 1 3 5 6 7 7 6 6 6 5 4 5 9 13 13 10 7 5 3 2 3 3 3 3 3 3 3 3 3 3 3 3 4
1 0 0 0 0 0 0 0 0 0 1 3 5 6 8 8 8 6 7 8 7 5 5 9 12 12 8 4 2 1 1 3 3 3 3 3 3 3 3 3 3 3 4 4
1 0 0 0 0 0 0 0 0 0 2 4 6 7 9 10 9 8 7 8 7 5 4 7 10 9 6 3 3 2 3 3 3 3 3 3 3 3 3 2 2 2 3 3
1 0 0 0 0 0 0 0 0 1 2 4 5 7 8 10 10 9 7 6 6 3 3 6 8 7 5 3 3 3 3 3 3 3 3 3 3 3 2 1 1 1 1 1
Wind_Speed
4 4 4 6 6 5 4 3 1 3 2 1 3 4 4 6 8 9 9 10 11 12 9 9 10 10 10 9 9 10 9 8 7 4 4 4 3 2 2 3 4 4 4 5
4 3 6 5 4 3 3 2 1 2 2 1 1 4 3 6 10 11 11 12 12 9 8 9 10 10 11 12 11 11 10 10 9 6 4 3 3 2 2 2 3 4 5 5
6 5 5 6 4 4 2 3 3 1 3 3 1 4 2 3 4 5 6 8 9 11 12 11 12 12 11 13 13 12 11 10 9 7 4 3 2 2 2 2 2 3 4 5
4 4 5 5 5 6 3 4 4 2 2 2 1 2 5 3 3 6 8 8 10 11 11 11 12 13 13 13 11 10 11 10 9 8 7 7 6 5 5 4 3 3 4 4
5 4 5 6 6 8 6 3 3 2 3 1 1 2 7 1 4 8 9 10 10 10 12 13 14 13 11 10 10 9 9 9 9 9 9 8 6 4 3 2 4 4 3 4
4 3 6 7 5 7 5 6 6 6 5 0 3 3 6 4 7 7 8 10 10 10 10 10 9 9 8 8 9 9 9 9 9 9 9 8 8 6 6 5 5 4 3 3
2 3 3 4 4 3 5 6 4 3 3 5 2 3 9 7 6 8 8 9 8 8 9 9 9 10 10 10 10 10 11 10 10 10 9 9 8 8 8 7 6 5 4 4
4 4 5 5 7 7 6 9 9 6 5 4 1 5 8 5 4 5 5 5 5 6 7 9 10 10 10 10 10 10 11 10 10 10 10 8 8 6 5 6 5 6 5 5
6 5 4 5 5 10 8 5 7 7 2 0 4 6 8 3 3 3 2 2 4 6 7 8 8 9 9 9 10 11 11 10 10 10 9 8 8 7 6 6 5 5 4 4
8 3 3 1 5 4 7 10 6 7 6 2 3 4 5 5 4 3 2 2 3 3 5 7 7 8 8 8 7 8 9 9 9 8 8 7 7 7 7 6 6 6 5 5
5 4 2 2 4 6 5 5 6 5 5 7 3 7 7 7 5 4 4 3 3 3 5 6 6 6 7 6 6 7 7 7 7 8 8 7 7 6 6 6 6 6 5 5
4 5 1 4 3 3 6 8 8 7 4 4 4 8 5 4 4 4 4 2 1 2 3 4 5 6 6 7 7 6 6 7 7 6 6 6 6 6 6 6 6 5 5 5
6 6 3 4 4 2 3 4 5 7 6 5 5 8 3 1 2 3 2 1 1 2 3 4 5 6 6 6 6 7 6 6 5 5 6 6 6 6 6 6 6 5 5 5
7 5 6 8 7 4 3 4 5 7 5 5 7 7 5 4 4 3 1 1 2 3 4 4 4 4 4 5 5 6 6 6 6 6 5 6 6 6 5 5 5 5 5 6
5 4 3 3 2 3 3 5 6 5 8 9 8 7 9 7 5 4 3 3 3 3 4 4 4 3 4 4 4 5 4 5 6 6 5 5 4 4 4 4 4 4 5 5
4 5 3 0 1 2 1 3 6 5 5 5 3 6 6 2 2 2 3 4 3 3 3 3 4 4 3 3 4 4 4 4 5 5 4 4 4 4 4 4 4 4 4 3
3 5 4 2 1 2 2 4 5 4 3 6 7 7 2 2 4 4 3 3 4 3 3 3 3 3 3 3 4 4 4 4 5 5 4 4 4 4 4 4 4 4 4 3
5 5 4 3 3 4 7 2 2 4 2 3 3 3 3 4 3 1 2 3 3 3 3 2 3 3 2 3 4 4 5 5 4 4 3 3 4 3 3 3 3 3 3 3
4 7 5 4 3 3 4 1 2 3 2 2 3 2 2 3 4 2 0 2 3 3 2 2 3 4 4 5 4 5 5 5 5 4 3 3 3 3 3 3 3 3 3 2
4 4 6 5 4 5 6 2 1 2 3 3 3 4 4 5 3 3 1 2 2 3 3 3 4 5 5 5 5 6 5 4 3 3 3 3 3 3 3 3 3 2 3 3
3 3 4 4 3 6 4 3 1 5 6 2 3 4 5 4 3 3 3 3 3 4 5 5 5 5 4 5 6 6 5 3 2 2 3 3 3 3 2 3 3 3 3 4
4 4 4 4 4 6 3 1 4 5 2 0 1 2 4 4 5 5 5 5 4 5 5 5 5 5 3 4 5 5 4 3 3 4 4 3 3 3 3 3 3 3 4 4
3 4 5 5 6 3 1 2 2 1 1 1 1 2 5 6 5 5 5 5 5 5 5 4 6 5 4 3 4 4 2 3 4 5 4 4 4 3 3 3 3 3 3 3
1 1 2 1 3 2 2 2 2 0 0 0 2 4 5 6 6 6 5 5 5 5 4 4 5 5 3 3 3 3 3 4 5 5 4 4 4 4 4 3 3 3 2 2
2 1 1 1 2 1 3 2 1 2 3 4 4 4 5 7 7 6 5 5 4 5 4 4 4 4 3 3 3 3 3 4 5 5 4 4 4 5 5 5 4 3 3 2
2 3 4 4 4 2 2 1 1 2 3 4 6 6 5 6 7 6 5 4 5 5 4 4 4 4 3 3 3 3 3 4 5 5 4 4 3 4 4 5 6 10 8 9
Wind_Direction
126 106 177 191 179 169 148 134 185 250 255 165 225 246 222 184 185 192 195 197 202 208 198 183 183 181 178 176 177 180 179 175 167 169 172 172 185 181 183 194 189 179 178 176
85 213 206 175 168 153 141 128 263 315 346 146 238 273 247 194 198 198 198 202 205 201 187 189 186 184 184 185 185 185 185 181 181 184 174 161 156 167 177 187 187 184 181 180
161 214 177 158 160 161 176 179 194 218 4 31 74 329 277 243 213 203 209 210 207 202 196 194 192 192 190 191 190 190 187 184 184 175 149 124 111 107 148 181 191 196 188 186
198 218 159 162 181 157 219 213 181 155 89 316 70 283 283 259 242 221 219 213 212 208 199 195 195 195 196 196 192 188 183 183 181 173 171 170 177 189 198 186 187 190 188 188
214 187 166 185 197 164 197 177 148 134 138 49 4 167 282 303 248 241 228 221 217 209 201 197 197 198 196 189 185 185 180 182 180 180 181 182 189 191 174 169 182 192 191 193
214 208 184 193 187 169 145 77 59 51 77 140 232 173 271 232 224 241 234 225 218 208 202 198 192 184 182 178 178 177 179 186 182 183 185 189 188 182 177 186 192 195 193 199
246 249 220 171 132 125 114 97 53 20 29 242 251 189 248 246 233 234 241 234 221 205 196 190 183 181 179 179 180 178 181 191 188 188 194 196 193 190 194 194 195 194 198 205
174 253 221 182 168 165 165 140 153 176 201 257 283 227 252 257 265 263 258 237 208 199 194 188 186 182 181 183 182 181 187 192 190 194 199 198 195 195 201 199 193 199 207 209
172 239 261 204 171 139 136 165 152 126 142 145 274 283 299 273 294 286 268 221 207 198 187 183 180 177 176 180 185 187 190 193 193 195 194 195 196 196 198 195 195 201 206 205
157 209 273 233 93 58 141 142 111 123 142 203 281 276 253 260 258 267 263 236 226 191 181 181 179 177 176 177 181 184 190 194 191 191 194 198 198 199 196 190 198 202 204 200
141 156 305 81 157 161 113 107 111 116 145 151 209 264 231 223 224 231 245 243 218 189 183 181 180 172 168 160 169 183 187 187 186 192 194 193 194 192 190 198 204 203 202 194
141 124 221 258 259 172 142 152 142 144 181 163 167 261 270 221 226 234 248 254 196 178 175 169 165 157 160 163 169 177 183 185 187 187 183 186 187 185 190 203 208 202 203 201
138 120 94 356 356 50 112 139 137 123 119 148 165 260 299 289 261 251 239 225 159 144 145 148 153 158 164 166 168 176 183 182 173 171 177 180 183 191 201 205 203 197 200 204
122 117 154 186 209 180 155 152 144 125 143 182 211 238 283 271 255 255 236 180 145 134 139 147 155 159 161 167 174 175 177 171 163 165 175 184 192 197 199 196 195 196 198 203
109 134 169 205 195 153 161 172 168 169 177 180 218 219 244 244 227 214 186 151 127 118 129 147 156 156 153 161 171 169 168 164 157 158 174 191 188 178 174 179 187 190 197 204
80 133 143 109 109 146 150 189 182 191 183 199 208 246 250 233 171 181 174 155 150 156 161 153 141 143 154 165 172 165 165 161 150 157 172 171 165 168 174 182 185 184 186 183
89 118 124 197 310 63 260 216 184 185 188 176 202 235 225 170 182 194 188 163 165 169 165 158 157 161 164 169 165 172 157 147 151 157 159 160 164 169 173 173 171 176 172 164
132 115 124 133 107 200 240 253 175 163 198 207 217 228 198 184 170 144 162 162 164 158 155 158 145 128 122 115 120 127 123 125 132 134 140 151 159 162 155 152 162 163 151 155
145 132 119 123 151 253 285 254 154 166 242 234 209 204 153 124 81 33 30 154 166 158 152 140 127 122 120 118 120 116 114 117 122 130 137 146 148 148 145 152 155 146 141 144
67 96 115 127 145 214 240 258 278 134 257 247 190 188 160 130 135 224 146 98 92 87 92 95 100 106 115 119 119 116 115 114 122 140 146 139 134 136 141 144 130 118 127 130
74 71 120 143 175 248 259 292 99 164 234 251 185 186 167 173 181 148 109 83 86 86 86 93 103 105 109 118 116 111 109 117 125 111 106 106 115 122 120 107 103 110 112 108
156 148 163 143 167 239 299 97 171 216 272 190 167 158 146 128 107 106 104 93 86 84 83 90 96 87 83 100 110 111 117 122 106 102 99 94 98 110 112 112 110 114 121 115
180 185 176 180 202 240 292 244 268 233 238 246 148 134 136 126 117 104 99 93 84 85 82 84 96 91 79 83 104 113 115 109 104 100 98 94 91 88 96 107 111 107 114 121
286 147 135 201 255 270 298 301 330 7 182 86 125 129 128 124 116 107 99 91 85 82 83 86 94 97 90 88 100 114 119 115 110 108 105 100 100 92 83 80 83 92 101 116
244 173 147 225 259 334 335 339 1 40 79 87 84 91 109 114 109 105 97 85 81 81 78 87 96 97 87 80 90 97 108 115 113 110 107 104 102 102 91 82 68 77 65 98
221 185 176 214 217 197 253 298 44 101 99 106 101 87 90 108 112 103 92 84 82 81 78 78 79 84 75 73 77 82 105 122 122 116 112 109 107 106 107 105 82 60 67 67